Location: Hohenfelde
(53.8441°N, 9.6220°E)
Time: 11:32:07
(UTC+00:00)

CZ-4 R/B - Pass Details

Date: 14 July 2020
Orbit: 682 x 752 km, 98.5° (Epoch: 09 August)

Event Time Altitude Azimuth Distance (km) Brightness Sun altitude
Rises 23:59:27 0° 15° (NNE) 3,079 9.0 -14.2°
Reaches altitude 10° 00:01:41 10° 17° (NNE) 2,166 7.7 -14.2°
Maximum altitude 00:06:26 84° 105° (ESE) 715 3.8 -14.1°
Enters shadow 00:09:36 22° 194° (SSW) 1,544 4.9 -14.0°
